When you browse on this site, cookies collect data to enhance your experience and personalize the content and advertising you see.
Visit our Privacy Policy to learn more. By continuing to use the site, you agree to this use of cookies and data.
  • In Lithuania
  • List of Countries
  • For 7 days
  • Water Temperature
  • Weather Map
  • Weather Widgets
  • user-avatar
    Login

    Hourly Weather Mingachevir

    Today, 18 November, Monday

    Time Temperature Precipitation Wind Pressure Humidity
    00:00 +5°C° 0 mm 0 mps 764 mmHg 67%
    01:00 +5°C° 0 mm 0 mps 763 mmHg 68%
    02:00 +5°C° 0 mm 0 mps 763 mmHg 69%
    03:00 +4°C° 0 mm 0 mps 762 mmHg 73%
    04:00 +4°C° 0 mm 0 mps 763 mmHg 73%
    05:00 +4°C° 0 mm 0 mps 763 mmHg 74%
    06:00 +4°C° 0 mm 0 mps 763 mmHg 74%
    07:00 +5°C° 0 mm 0 mps 763 mmHg 67%
    08:00 +7°C° 0 mm 0 mps 763 mmHg 61%
    09:00 +9°C° 0 mm 0 mps 763 mmHg 55%
    10:00 +11°C° 0 mm 1 mps 762 mmHg 51%
    11:00 +12°C° 0 mm 1 mps 762 mmHg 47%
    12:00 +13°C° 0 mm 1 mps 762 mmHg 43%
    13:00 +13°C° 0 mm 1 mps 761 mmHg 42%
    14:00 +13°C° 0 mm 1 mps 761 mmHg 41%
    15:00 +14°C° 0 mm 2 mps 760 mmHg 40%
    16:00 +12°C° 0 mm 1 mps 761 mmHg 46%
    17:00 +11°C° 0 mm 1 mps 761 mmHg 51%
    18:00 +9°C° 0 mm 1 mps 761 mmHg 56%
    19:00 +8°C° 0 mm 0 mps 761 mmHg 57%
    20:00 +8°C° 0 mm 0 mps 761 mmHg 59%
    21:00 +7°C° 0 mm 0 mps 761 mmHg 60%
    22:00 +7°C° 0 mm 0 mps 761 mmHg 60%
    23:00 +8°C° 0 mm 0 mps 761 mmHg 60%

    Tomorrow, 19 November, Tuesday

    Time Temperature Precipitation Wind Pressure Humidity
    00:00 +8°C° 0 mm 0 mps 761 mmHg 59%
    01:00 +7°C° 0 mm 0 mps 761 mmHg 61%
    02:00 +7°C° 0 mm 0 mps 760 mmHg 63%
    03:00 +7°C° 0 mm 0 mps 760 mmHg 64%
    04:00 +6°C° 0 mm 0 mps 760 mmHg 65%
    05:00 +7°C° 0 mm 1 mps 760 mmHg 65%
    06:00 +7°C° 0 mm 1 mps 760 mmHg 66%
    07:00 +8°C° 0 mm 1 mps 760 mmHg 61%
    08:00 +10°C° 0 mm 1 mps 760 mmHg 55%
    09:00 +11°C° 0 mm 1 mps 760 mmHg 50%
    10:00 +12°C° 0 mm 1 mps 760 mmHg 49%
    11:00 +13°C° 0 mm 1 mps 759 mmHg 48%
    12:00 +14°C° 0 mm 1 mps 759 mmHg 46%
    13:00 +14°C° 0 mm 1 mps 759 mmHg 46%
    14:00 +15°C° 0 mm 1 mps 759 mmHg 45%
    15:00 +15°C° 0 mm 1 mps 758 mmHg 44%
    16:00 +13°C° 0 mm 1 mps 759 mmHg 50%
    17:00 +12°C° 0 mm 1 mps 759 mmHg 56%
    18:00 +9°C° 0 mm 0 mps 759 mmHg 62%
    19:00 +9°C° 0 mm 0 mps 759 mmHg 65%
    20:00 +8°C° 0 mm 0 mps 759 mmHg 67%
    21:00 +8°C° 0 mm 0 mps 759 mmHg 69%
    22:00 +8°C° 0 mm 0 mps 759 mmHg 69%
    23:00 +8°C° 0 mm 1 mps 759 mmHg 70%

    Day after tomorrow, 20 November, Wednesday

    Time Temperature Precipitation Wind Pressure Humidity
    00:00 +8°C° 0 mm 1 mps 759 mmHg 70%
    01:00 +8°C° 0 mm 1 mps 759 mmHg 69%
    02:00 +8°C° 0 mm 1 mps 758 mmHg 67%
    03:00 +8°C° 0 mm 1 mps 758 mmHg 66%
    04:00 +8°C° 0 mm 1 mps 758 mmHg 65%
    05:00 +7°C° 0 mm 1 mps 758 mmHg 63%
    06:00 +7°C° 0 mm 1 mps 758 mmHg 62%
    07:00 +9°C° 0 mm 1 mps 758 mmHg 55%
    08:00 +10°C° 0 mm 1 mps 758 mmHg 49%
    09:00 +12°C° 0 mm 1 mps 758 mmHg 43%
    10:00 +13°C° 0 mm 1 mps 758 mmHg 40%
    11:00 +14°C° 0 mm 1 mps 757 mmHg 38%
    12:00 +15°C° 0 mm 1 mps 757 mmHg 35%
    13:00 +15°C° 0 mm 2 mps 756 mmHg 35%
    14:00 +16°C° 0 mm 2 mps 756 mmHg 34%
    15:00 +16°C° 0 mm 2 mps 756 mmHg 34%
    16:00 +14°C° 0 mm 2 mps 756 mmHg 39%
    17:00 +13°C° 0 mm 2 mps 757 mmHg 43%
    18:00 +10°C° 0 mm 2 mps 757 mmHg 48%
    19:00 +10°C° 0 mm 3 mps 757 mmHg 55%
    20:00 +9°C° 0 mm 3 mps 758 mmHg 61%
    21:00 +8°C° 0 mm 4 mps 758 mmHg 68%
    22:00 +7°C° 0 mm 4 mps 758 mmHg 74%
    23:00 +8°C° 0 mm 3 mps 758 mmHg 79%

    21 November, Thursday

    Time Temperature Precipitation Wind Pressure Humidity
    00:00 +7°C° 0 mm 3 mps 758 mmHg 85%
    01:00 +8°C° 0 mm 3 mps 758 mmHg 84%
    02:00 +8°C° 0 mm 3 mps 758 mmHg 83%
    03:00 +8°C° 0 mm 3 mps 758 mmHg 83%
    04:00 +8°C° 0 mm 3 mps 758 mmHg 82%
    05:00 +8°C° 0 mm 3 mps 758 mmHg 80%
    06:00 +7°C° 0 mm 4 mps 758 mmHg 79%
    07:00 +7°C° 0 mm 4 mps 758 mmHg 77%
    08:00 +7°C° 0 mm 4 mps 759 mmHg 74%
    09:00 +8°C° 0 mm 5 mps 759 mmHg 72%
    10:00 +8°C° 0 mm 5 mps 758 mmHg 71%
    11:00 +8°C° 0 mm 5 mps 758 mmHg 71%
    12:00 +8°C° 0 mm 5 mps 758 mmHg 71%
    13:00 +8°C° 0.1 mm 5 mps 758 mmHg 72%
    14:00 +8°C° 0.1 mm 5 mps 758 mmHg 74%
    15:00 +8°C° 0.1 mm 4 mps 758 mmHg 76%
    16:00 +7°C° 0.2 mm 5 mps 759 mmHg 78%
    17:00 +7°C° 0.2 mm 5 mps 759 mmHg 81%
    18:00 +7°C° 0.2 mm 5 mps 760 mmHg 83%
    19:00 +5°C° 0.2 mm 6 mps 760 mmHg 82%
    20:00 +5°C° 0.2 mm 6 mps 761 mmHg 80%
    21:00 +5°C° 0.2 mm 6 mps 761 mmHg 79%
    22:00 +5°C° 0.2 mm 6 mps 761 mmHg 79%
    23:00 +5°C° 0.2 mm 7 mps 761 mmHg 79%

    22 November, Friday

    Time Temperature Precipitation Wind Pressure Humidity
    00:00 +4°C° 0.2 mm 7 mps 762 mmHg 79%
    01:00 +4°C° 0.2 mm 7 mps 762 mmHg 80%
    02:00 +4°C° 0.2 mm 7 mps 762 mmHg 81%
    03:00 +3°C° 0.2 mm 7 mps 762 mmHg 82%
    04:00 +3°C° 0.3 mm 6 mps 763 mmHg 83%
    05:00 +3°C° 0.3 mm 6 mps 763 mmHg 84%
    06:00 +3°C° 0.3 mm 6 mps 763 mmHg 85%
    07:00 +3°C° 0.4 mm 6 mps 764 mmHg 84%
    08:00 +3°C° 0.4 mm 6 mps 764 mmHg 84%
    09:00 +3°C° 0.4 mm 6 mps 765 mmHg 84%
    10:00 +3°C° 0.2 mm 5 mps 765 mmHg 84%
    11:00 +3°C° 0.2 mm 5 mps 765 mmHg 83%
    12:00 +4°C° 0.2 mm 4 mps 764 mmHg 83%
    13:00 +5°C° 0 mm 4 mps 764 mmHg 79%
    14:00 +5°C° 0 mm 4 mps 764 mmHg 74%
    15:00 +5°C° 0 mm 3 mps 764 mmHg 70%
    16:00 +5°C° 0 mm 3 mps 764 mmHg 72%
    17:00 +5°C° 0 mm 3 mps 765 mmHg 74%
    18:00 +5°C° 0 mm 2 mps 765 mmHg 77%
    19:00 +4°C° 0 mm 3 mps 765 mmHg 77%
    20:00 +4°C° 0 mm 3 mps 766 mmHg 78%
    21:00 +4°C° 0 mm 3 mps 766 mmHg 79%
    22:00 +3°C° 0 mm 3 mps 766 mmHg 81%
    23:00 +3°C° 0 mm 3 mps 766 mmHg 82%

    23 November, Saturday

    Time Temperature Precipitation Wind Pressure Humidity
    00:00 +3°C° 0 mm 3 mps 766 mmHg 84%
    01:00 +3°C° 0 mm 3 mps 765 mmHg 84%
    02:00 +4°C° 0 mm 2 mps 765 mmHg 84%
    03:00 +4°C° 0 mm 2 mps 765 mmHg 84%
    04:00 +3°C° 0 mm 2 mps 765 mmHg 85%
    05:00 +3°C° 0 mm 2 mps 765 mmHg 85%
    06:00 +3°C° 0 mm 2 mps 765 mmHg 86%
    07:00 +3°C° 0 mm 2 mps 765 mmHg 84%
    08:00 +4°C° 0 mm 2 mps 765 mmHg 81%
    09:00 +4°C° 0 mm 2 mps 765 mmHg 79%
    10:00 +4°C° 0 mm 2 mps 764 mmHg 75%
    11:00 +5°C° 0 mm 2 mps 764 mmHg 71%
    12:00 +6°C° 0 mm 2 mps 764 mmHg 67%
    13:00 +6°C° 0 mm 2 mps 763 mmHg 65%
    14:00 +7°C° 0 mm 1 mps 763 mmHg 63%
    15:00 +7°C° 0 mm 1 mps 763 mmHg 61%
    16:00 +7°C° 0 mm 1 mps 763 mmHg 63%
    17:00 +7°C° 0 mm 1 mps 763 mmHg 64%
    18:00 +6°C° 0 mm 1 mps 763 mmHg 65%
    19:00 +6°C° 0 mm 1 mps 764 mmHg 66%
    20:00 +6°C° 0 mm 1 mps 764 mmHg 67%
    21:00 +6°C° 0 mm 1 mps 764 mmHg 68%
    22:00 +6°C° 0 mm 1 mps 764 mmHg 70%
    23:00 +6°C° 0 mm 1 mps 764 mmHg 72%
    Show more